[[{"header":{"parameterUnit":"m.s-1","parameterCategory":1,"la1":30.2991,"la2":30.254,"lo1":-89.0895,"lo2":-89.0444,"dy":0.0017,"dx":0.0017,"nx":28,"ny":28,"refTime":"2024-06-19T21:00:00:Z","depth":0,"parameterNumber":2,"parameterNumberName":"U-component_of_WINDS"},"data":[0,0,0,0,0,0,0,0,0,0,0,0,0,0,0,0,0,0,0,0,0,0,0,0,0,0,0,0,0,0,0,0,0,0,0,0,0,0,0,0,0,0,0,0,0,0,0,0,0,0,0,0,0,0,0,0,0,0,-4.7277,-4.7277,0,-4.7302,-4.7302,-4.7302,-4.7195,-4.7191,-4.7188,-4.7185,-4.7215,-4.7219,-4.7222,0,0,0,0,0,0,0,0,0,0,0,0,0,-4.7143,-4.7146,-4.7277,-4.7277,-4.7278,-4.7302,-4.7302,-4.7302,-4.7195,-4.7191,-4.7188,-4.7184,-4.7214,-4.7218,-4.7223,0,0,0,0,0,0,0,0,0,0,0,0,0,-4.7188,-4.7147,-4.7277,-4.7227,-4.7223,-4.7302,-4.7302,-4.7302,-4.7196,-4.7191,-4.7186,-4.7182,-4.7212,-4.7218,-4.7223,-4.7353,0,0,-4.724,-4.7243,0,0,0,0,0,0,0,0,-4.7185,-4.7193,-4.7234,-4.7231,-4.7226,-4.724,-4.7265,-4.732,-4.7197,-4.7206,-4.7185,-4.718,-4.7228,-4.7232,-4.7247,-4.7354,-4.7355,-4.7241,-4.7244,-4.7247,-4.7248,0,0,0,0,0,0,0,-4.7182,-4.7191,-4.7287,-4.7235,-4.723,-4.7205,-4.7206,-4.7275,-4.7243,-4.7205,-4.7197,-4.7202,-4.7224,-4.7242,-4.7247,-4.7356,-4.7241,-4.7246,-4.7249,-4.7251,-4.7573,-4.7578,0,0,0,0,0,0,-4.7185,-4.7189,-4.7286,-4.7288,-4.7193,-4.7211,-4.7213,-4.7241,-4.7242,-4.7238,-4.7206,-4.7196,-4.7234,-4.724,-4.7247,-4.74,-4.7247,-4.7252,-4.7255,-4.7568,-4.7575,-4.758,0,0,0,0,0,0,-4.7183,-4.7195,-4.7285,-4.7236,-4.7246,-4.7219,-4.7251,-4.7243,-4.726,-4.7242,-4.7237,-4.7229,-4.7231,-4.7239,-4.7328,-4.74,-4.7254,-4.726,-4.7562,-4.757,-4.7577,-4.7707,0,0,0,0,0,0,-4.7179,-4.7194,-4.7242,-4.7238,-4.7249,-4.7364,-4.7255,-4.7247,-4.727,-4.7258,-4.7263,-4.7259,-4.7228,-4.732,-4.7333,-4.7405,-4.7264,-4.7556,-4.7566,-4.7575,-4.7696,-4.7718,-4.7737,0,0,0,0,0,-4.7175,-4.7278,-4.7245,-4.7257,-4.7307,-4.7368,-4.7374,-4.7335,-4.7276,-4.7325,-4.7314,-4.7259,-4.739,-4.733,-4.7344,-4.7418,-4.7551,-4.7563,-4.7574,-4.7687,-4.7714,-4.7737,0,0,0,0,0,0,-4.7291,-4.7276,-4.724,-4.7344,-4.7358,-4.735,-4.7409,-4.7365,-4.7397,-4.7384,-4.7336,-4.7338,-4.7435,-4.7435,-4.7369,-4.7545,-4.746,-4.7476,-4.7541,-4.7567,-4.7587,-4.7585,-4.7269,0,0,0,0,0,-4.7329,-4.7378,-4.7363,-4.7457,-4.7466,-4.7437,-4.7462,-4.743,-4.7443,-4.7449,-4.7444,-4.7461,-4.7505,-4.7536,-4.7576,-4.7696,-4.7696,-4.7754,-4.7775,-4.7792,-4.7806,-4.7871,-4.7897,-4.7619,-4.7619,-4.7618,0,0,-4.7408,-4.7406,-4.744,-4.748,-4.7487,-4.7541,-4.7442,-4.7503,-4.7543,-4.7459,-4.7541,-4.7539,-4.7554,-4.7659,-4.7705,-4.7662,-4.7883,-4.7807,-4.782,-4.7825,-4.7886,-4.7912,-4.7936,-4.7627,-4.7625,-4.7624,0,0,-4.7579,-4.7582,-4.7661,-4.767,-4.7682,-4.7663,-4.7682,-4.7681,-4.7676,-4.7758,-4.7697,-4.7745,-4.7822,-4.7836,-4.7854,-4.8033,-4.7985,-4.8048,-4.8155,-4.8219,-4.8241,-4.8261,-4.8326,-4.835,-4.8061,-4.8062,-4.8062,0,-4.7675,-4.7752,-4.7707,-4.7772,-4.7793,-4.7719,-4.78,-4.7812,-4.7838,-4.7854,-4.7806,-4.7903,-4.7908,-4.8016,-4.806,-4.8076,-4.8099,-4.8047,-4.8241,-4.826,-4.8278,-4.834,-4.8364,-4.8069,-4.8068,-4.8068,-4.8067,0,-4.7871,-4.7926,-4.7989,-4.8014,-4.8042,-4.8115,-4.8083,-4.8117,-4.8085,-4.8071,-4.8158,-4.8161,-4.8202,-4.8225,-4.8194,-4.833,-4.8303,-4.8249,-4.8163,-4.8313,-4.837,-4.8393,-4.808,-4.8077,-4.8075,-4.8073,0,0,-4.8115,-4.8116,-4.814,-4.8152,-4.8161,-4.8203,-4.8274,-4.8312,-4.8343,-4.8364,-4.8424,-4.8493,-4.8443,-4.8463,-4.8433,-4.849,-4.8634,-4.8428,-4.8428,-4.8468,-4.8787,-4.8828,-4.8856,-4.8602,-4.8606,-4.861,-4.8786,0,-4.8283,-4.8402,-4.8366,-4.8487,-4.8538,-4.847,-4.8532,-4.8546,-4.8536,-4.8579,-4.8569,-4.8619,-4.8548,-4.856,-4.8613,-4.8605,-4.8697,-4.8592,-4.8659,-4.8662,-4.8657,-4.8885,-4.8929,-4.9094,-4.8808,-4.8811,-4.8814,0,-4.8495,-4.8523,-4.865,-4.8652,-4.8672,-4.8729,-4.8762,-4.8804,-4.8819,-4.8808,-4.8832,-4.8791,-4.8863,-4.8777,-4.8877,-4.8806,-4.8832,-4.8833,-4.8838,-4.8843,-4.8747,-4.8898,-4.9146,-4.9172,-4.8849,-4.8846,-4.8844,0,-4.8661,-4.8732,-4.8817,-4.8829,-4.8833,-4.8875,-4.8879,-4.8889,-4.8916,-4.8946,-4.8963,-4.9003,-4.9024,-4.9057,-4.9028,-4.8968,-4.9134,-4.9045,-4.9129,-4.913,-4.9166,-4.9165,-4.9424,-4.9183,-4.9182,-4.9182,-4.9181,0,-4.8853,-4.8933,-4.8892,-4.8944,-4.9033,-4.8991,-4.9081,-4.9078,-4.9088,-4.9141,-4.9085,-4.9135,-4.9095,-4.9143,-4.9122,-4.9209,-4.9219,-4.9214,-4.9207,-4.9219,-4.922,-4.9235,-4.9223,-4.9188,-4.9187,-4.9185,-4.9184,0,-4.9054,-4.9029,-4.9117,-4.9115,-4.9116,-4.9182,-4.9181,-4.9231,-4.9217,-4.9285,-4.9298,-4.9278,-4.9332,-4.9307,-4.9363,-4.9349,-4.9462,-4.944,-4.9457,-4.9451,-4.9537,-4.953,-4.9815,-4.9851,-4.9586,-4.9589,-4.9591,0,-4.9178,-4.9238,-4.9242,-4.9273,-4.9281,-4.9331,-4.9358,-4.932,-4.9351,-4.9374,-4.9422,-4.9471,-4.9507,-4.9597,-4.9589,-4.9633,-4.9612,-4.9709,-4.9618,-4.9629,-4.9615,-4.9612,-4.9618,-4.9727,-4.973,-4.9733,-4.9735,0,-4.9401,-4.9386,-4.9426,-4.9464,-4.9497,-4.9525,-4.9548,-4.9576,-4.954,-4.9578,-4.9632,-4.966,-4.9719,-4.9769,-4.9808,-4.9814,-4.977,-4.9764,-4.9786,-4.9798,-4.9806,-4.9804,-4.9507,-4.9757,-4.9755,-4.9753,-4.9752,-4.9751,-4.9568,-4.9619,-4.963,-4.9678,-4.9691,-4.9715,-4.9762,-4.9755,-4.9799,-4.9842,-4.9818,-4.9882,-4.9898,-4.9946,-4.9959,-5.0009,-4.9971,-5.0003,-5.0011,-5.0019,-5.0031,-4.9798,-5.0016,-5.0016,-5.0015,-5.0015,-5.0014,0,-4.9789,-4.9794,-4.9838,-4.9872,-4.991,-4.9864,-4.9888,-4.9923,-4.9979,-4.9998,-5.0036,-5.0099,-5.0148,-5.0145,-5.019,-5.0232,-5.0213,-5.0246,-5.0242,-5.0245,-5.0062,-5.0039,-5.026,-5.026,-5.026,-5.026,-5.026,-5.026,-4.9908,-4.9993,-4.9981,-5.0073,-5.0077,-5.0138,-5.0156,-5.0178,-5.0193,-5.0266,-5.0306,-5.0303,-5.0314,-5.036,-5.0404,-5.0402,-5.0422,-5.0462,-5.0453,-5.0282,-5.0258,-5.0234,-5.0212,-5.0467,-5.0467,-5.0632,-5.0633,-5.0634]},{"header":{"parameterUnit":"m.s-1","parameterCategory":1,"la1":30.2991,"la2":30.254,"lo1":-89.0895,"lo2":-89.0444,"dy":0.0017,"dx":0.0017,"nx":28,"ny":28,"refTime":"2024-06-19T21:00:00:Z","depth":0,"parameterNumber":3,"parameterNumberName":"V-component_of_WINDS"},"data":[0,0,0,0,0,0,0,0,0,0,0,0,0,0,0,0,0,0,0,0,0,0,0,0,0,0,0,0,0,0,0,0,0,0,0,0,0,0,0,0,0,0,0,0,0,0,0,0,0,0,0,0,0,0,0,0,0,0,-0.6923,-0.6923,0,-0.6958,-0.6958,-0.6959,-0.6942,-0.6941,-0.6941,-0.694,-0.6974,-0.6976,-0.6977,0,0,0,0,0,0,0,0,0,0,0,0,0,-0.684,-0.6842,-0.6923,-0.6924,-0.6924,-0.6958,-0.6958,-0.6959,-0.6942,-0.6941,-0.694,-0.6939,-0.6973,-0.6976,-0.6978,0,0,0,0,0,0,0,0,0,0,0,0,0,-0.6876,-0.6843,-0.6923,-0.692,-0.692,-0.6958,-0.6958,-0.6959,-0.6943,-0.6941,-0.694,-0.6939,-0.6973,-0.6975,-0.6978,-0.702,0,0,-0.6986,-0.6987,0,0,0,0,0,0,0,0,-0.6874,-0.6879,-0.692,-0.692,-0.692,-0.6944,-0.6942,-0.6979,-0.6943,-0.6934,-0.694,-0.6938,-0.6965,-0.6968,-0.6978,-0.7022,-0.7023,-0.6986,-0.6988,-0.6989,-0.6989,0,0,0,0,0,0,0,-0.6871,-0.6877,-0.6937,-0.6921,-0.6921,-0.6916,-0.692,-0.6949,-0.6956,-0.6935,-0.6934,-0.6938,-0.6965,-0.6975,-0.6978,-0.7024,-0.6986,-0.6988,-0.699,-0.6991,-0.7103,-0.7104,0,0,0,0,0,0,-0.6869,-0.6875,-0.6936,-0.6938,-0.6893,-0.6919,-0.6923,-0.6938,-0.6956,-0.6958,-0.6939,-0.6937,-0.6971,-0.6975,-0.6979,-0.703,-0.6989,-0.6991,-0.6993,-0.7101,-0.7103,-0.7105,0,0,0,0,0,0,-0.6868,-0.6875,-0.6934,-0.6906,-0.6913,-0.6921,-0.6939,-0.6939,-0.695,-0.6959,-0.6961,-0.6948,-0.6971,-0.6976,-0.701,-0.7031,-0.6992,-0.6995,-0.71,-0.7102,-0.7104,-0.7131,0,0,0,0,0,0,-0.6865,-0.6874,-0.6891,-0.6907,-0.6915,-0.6965,-0.694,-0.6941,-0.6954,-0.6952,-0.6968,-0.697,-0.697,-0.7006,-0.7013,-0.7034,-0.6997,-0.7098,-0.7101,-0.7103,-0.7128,-0.7134,-0.7139,0,0,0,0,0,-0.6862,-0.6898,-0.6892,-0.69,-0.6936,-0.6966,-0.6971,-0.6971,-0.6956,-0.6973,-0.6979,-0.6969,-0.7027,-0.701,-0.7017,-0.7039,-0.7097,-0.71,-0.7103,-0.7126,-0.7133,-0.7138,0,0,0,0,0,0,-0.6884,-0.69,-0.6894,-0.6935,-0.695,-0.6964,-0.6985,-0.6978,-0.6997,-0.6994,-0.6992,-0.6996,-0.7031,-0.7038,-0.7019,-0.708,-0.7059,-0.7064,-0.7075,-0.7081,-0.7086,-0.7084,-0.6999,0,0,0,0,0,-0.6894,-0.6918,-0.6929,-0.6965,-0.6972,-0.6977,-0.699,-0.6988,-0.7003,-0.7009,-0.7018,-0.7032,-0.7053,-0.7067,-0.7087,-0.7129,-0.7132,-0.7147,-0.7152,-0.7156,-0.7161,-0.7182,-0.7189,-0.7115,-0.7115,-0.7115,0,0,-0.6914,-0.6925,-0.6941,-0.6969,-0.698,-0.7004,-0.6982,-0.7009,-0.7026,-0.7013,-0.7046,-0.7052,-0.7068,-0.7106,-0.7123,-0.7113,-0.7182,-0.716,-0.7164,-0.7166,-0.7186,-0.7194,-0.72,-0.7117,-0.7117,-0.7117,0,0,-0.6964,-0.6974,-0.7005,-0.7016,-0.7033,-0.7035,-0.7042,-0.7057,-0.7061,-0.7094,-0.7084,-0.7104,-0.7141,-0.7152,-0.7163,-0.7214,-0.7206,-0.722,-0.7248,-0.7269,-0.7275,-0.728,-0.7298,-0.7305,-0.7225,-0.7225,-0.7225,0,-0.6987,-0.7023,-0.7021,-0.7048,-0.7061,-0.7049,-0.7079,-0.709,-0.7112,-0.7121,-0.7109,-0.7154,-0.7164,-0.7204,-0.7216,-0.7225,-0.7233,-0.7219,-0.7274,-0.7279,-0.7284,-0.7301,-0.7308,-0.7226,-0.7226,-0.7226,-0.7226,0,-0.705,-0.7075,-0.7098,-0.7119,-0.7134,-0.7163,-0.7164,-0.7179,-0.7175,-0.7179,-0.7212,-0.7223,-0.7245,-0.7254,-0.7251,-0.7293,-0.7286,-0.7274,-0.7254,-0.7293,-0.7309,-0.7316,-0.7229,-0.7228,-0.7228,-0.7227,0,0,-0.7117,-0.7136,-0.7144,-0.7153,-0.717,-0.7189,-0.7216,-0.7237,-0.725,-0.7265,-0.7287,-0.7318,-0.7306,-0.7318,-0.7316,-0.7334,-0.7374,-0.732,-0.732,-0.733,-0.742,-0.743,-0.7438,-0.7368,-0.7369,-0.737,-0.7419,0,-0.7167,-0.7216,-0.7214,-0.7259,-0.7281,-0.7269,-0.7293,-0.7305,-0.7308,-0.7327,-0.7331,-0.7353,-0.7336,-0.7343,-0.7361,-0.7365,-0.7392,-0.7361,-0.7388,-0.7389,-0.7386,-0.7446,-0.7457,-0.7503,-0.7426,-0.7427,-0.7427,0,-0.7234,-0.7251,-0.7298,-0.731,-0.7319,-0.7341,-0.7359,-0.7378,-0.739,-0.7392,-0.7404,-0.7398,-0.7424,-0.7402,-0.7438,-0.7417,-0.7428,-0.7431,-0.7433,-0.7436,-0.7412,-0.7452,-0.7518,-0.7525,-0.7437,-0.7437,-0.7436,0,-0.7278,-0.7313,-0.7345,-0.7353,-0.7368,-0.7383,-0.739,-0.7401,-0.7414,-0.7429,-0.7437,-0.7456,-0.7466,-0.748,-0.7479,-0.7463,-0.7515,-0.7493,-0.7517,-0.7517,-0.753,-0.7529,-0.7599,-0.7535,-0.7535,-0.7535,-0.7535,0,-0.7336,-0.7365,-0.7365,-0.7385,-0.7417,-0.7413,-0.7445,-0.745,-0.746,-0.748,-0.747,-0.7489,-0.7486,-0.7505,-0.7504,-0.7533,-0.7538,-0.7539,-0.7539,-0.7541,-0.7541,-0.7549,-0.7546,-0.7537,-0.7536,-0.7536,-0.7535,0,-0.7391,-0.7392,-0.7427,-0.7437,-0.744,-0.7464,-0.7472,-0.7491,-0.7492,-0.7518,-0.7524,-0.7526,-0.7548,-0.7548,-0.7572,-0.7571,-0.7607,-0.7603,-0.7603,-0.7603,-0.7627,-0.7625,-0.7705,-0.7715,-0.7644,-0.7645,-0.7645,0,-0.7429,-0.7451,-0.7463,-0.7476,-0.7484,-0.7504,-0.7517,-0.7514,-0.7527,-0.7542,-0.7558,-0.7579,-0.7595,-0.7629,-0.7633,-0.7651,-0.7647,-0.7674,-0.765,-0.7651,-0.7648,-0.7647,-0.7649,-0.7679,-0.768,-0.7681,-0.7681,0,-0.7495,-0.7494,-0.7512,-0.7531,-0.7546,-0.756,-0.7573,-0.7584,-0.7582,-0.7597,-0.7618,-0.7631,-0.7655,-0.7675,-0.7692,-0.7698,-0.7689,-0.7688,-0.7695,-0.7698,-0.7697,-0.7698,-0.7617,-0.7687,-0.7686,-0.7686,-0.7686,-0.7685,-0.7543,-0.7561,-0.7573,-0.7593,-0.7603,-0.7615,-0.7632,-0.7636,-0.7654,-0.7674,-0.767,-0.7694,-0.7704,-0.7727,-0.7734,-0.7752,-0.7743,-0.7752,-0.7755,-0.7757,-0.776,-0.7693,-0.7755,-0.7755,-0.7755,-0.7755,-0.7754,0,-0.7609,-0.7615,-0.7634,-0.7652,-0.7668,-0.7657,-0.7671,-0.7685,-0.7706,-0.7717,-0.7732,-0.7757,-0.7775,-0.778,-0.7798,-0.7812,-0.7808,-0.7817,-0.7816,-0.7817,-0.7767,-0.776,-0.7819,-0.7819,-0.7819,-0.7819,-0.7819,-0.7819,-0.7645,-0.7676,-0.7676,-0.7711,-0.7717,-0.7741,-0.7749,-0.776,-0.7768,-0.7796,-0.7811,-0.7814,-0.7822,-0.784,-0.7856,-0.7857,-0.7864,-0.7875,-0.7874,-0.7828,-0.7821,-0.7815,-0.7808,-0.7876,-0.7876,-0.7923,-0.7923,-0.7923]}]]